Regional Weather Roundup
Issued by NWS

Home | Current Version | Previous Version | Graphics & Text | Print | Product List | Glossary On
Versions: 1 2 3 4 5 6 7 8 9 10 11 12 13 14 15 16 17 18 19 20 21 22 23 24 25 26 27 28 29 30 31 32 33 34 35 36 37 38 39 40 41 42 43 44 45 46 47 48 49 50
000
ASUS43 KMKX 111559
RWRWI

WISCONSIN REGIONAL WEATHER ROUNDUP
NATIONAL WEATHER SERVICE MILWAUKEE/SULLIVAN WI
1000 AM CST MON DEC 11 2017

NOTE: "FAIR" INDICATES FEW OR NO CLOUDS BELOW 12,000 FEET WITH NO
SIGNIFICANT WEATHER AND/OR OBSTRUCTIONS TO VISIBILITY.

WIZ001-002-006>008-014>016-023>028-111700-
NORTHWEST WISCONSIN

CITY           SKY/WX    TMP DP  RH WIND       PRES   REMARKS
SUPERIOR ARPT  LGT SNOW  22  21  96 CALM      29.76R
ASHLAND        LGT SNOW  22  19  89 CALM      29.76R VSB 1
HAYWARD        CLOUDY    23  19  85 CALM      29.73R
SIREN          CLOUDY    26  24  91 CALM      29.74R
CUMBERLAND     CLOUDY    27  23  86 CALM      29.72R FOG
RICE LAKE      CLOUDY    26  24  94 CALM      29.73S FOG
CHETEK         CLOUDY    25  23  91 S5        29.72F WCI  19
LADYSMITH      CLOUDY    25  23  92 S6        29.73F WCI  18
EAU CLAIRE     NOT AVBL
MENOMONIE      CLOUDY    28  25  91 E3        29.73S FOG
NEW RICHMOND   LGT SNOW  29  27  91 CALM      29.72S
OSCEOLA        LGT SNOW  28  28 100 CALM      29.77R
$$

WIZ003>005-009-010-017-018-111700-
NORTH CENTRAL WISCONSIN

CITY           SKY/WX    TMP DP  RH WIND       PRES   REMARKS
MANITOWISH WTR LGT SNOW  19  19 100 S6        29.70S WCI  11
ARBOR VITAE    CLOUDY    22  20  93 S6        29.70F FOG     WCI  14
WOODRUFF       CLOUDY    22  20  93 S6        29.70F FOG     WCI  14
RHINELANDER    CLOUDY    21  20  96 S5        29.72F FOG     WCI  15
EAGLE RIVER    CLOUDY    19  16  90 S5        29.71S FOG     WCI  12
LAND O LAKES   LGT SNOW  19  16  88 S5        29.72F WCI  13
PHILLIPS       CLOUDY    21  20  98 S7        29.69F WCI  12
TOMAHAWK       CLOUDY    20  18  93 CALM      29.72F FOG
MEDFORD        CLOUDY    21  20  95 S5        29.71F FOG     WCI  15
MERRILL        CLOUDY    21  20  96 S3        29.74F
$$

WIZ029-030-035-036-043>047-111700-
CENTRAL WISCONSIN

CITY           SKY/WX    TMP DP  RH WIND       PRES   REMARKS
WAUSAU         CLOUDY    22  21  96 SE7       29.73F WCI  13
MOSINEE        CLOUDY    21  21 100 SE7       29.75F FOG     WCI  13
MARSHFIELD     CLOUDY    24  22  91 S7        29.73R FOG     WCI  16
STEVENS POINT  CLOUDY    22  22 100 SE6       29.76F WCI  14
WAUPACA        CLOUDY    26  23  89 SE6       29.79F WCI  19
WAUTOMA        CLOUDY    26  22  84 SE9       29.77F WCI  17
WISC RAPIDS    CLOUDY    25  22  88 S5        29.76F WCI  19
CAMP DOUGLAS   NOT AVBL
$$

WIZ011>013-019>022-031-037>040-048>050-111700-
NORTHEAST WISCONSIN

CITY           SKY/WX    TMP DP  RH WIND       PRES   REMARKS
ANTIGO         CLOUDY    19  19  98 S8        29.74F FOG     WCI   9
SHAWANO        CLOUDY    24  22  90 S3        29.80F
OCONTO         CLOUDY    24  21  91 S5        29.83F WCI  18
STURGEON BAY   LGT SNOW  24  21  88 S9        29.83F FOG     WCI  14
GREEN BAY      CLOUDY    24  23  96 S9        29.82F WCI  14
MANITOWOC      MIX PCPN  25  22  88 S10       29.83F FOG     WCI  15
APPLETON       CLOUDY    25  21  86 S12       29.78F FOG     WCI  14
CLINTONVILLE   CLOUDY    25  21  86 S7        29.80F FOG     WCI  17
OSHKOSH        CLOUDY    25  21  85 S9        29.79F WCI  15
$$

WIZ032>034-041-042-053>061-111700-
SOUTHWEST WISCONSIN

CITY           SKY/WX    TMP DP  RH WIND       PRES   REMARKS
LA CROSSE      CLOUDY    29  24  82 S6        29.75S WCI  23
SPARTA         CLOUDY    28  24  83 CALM      29.75S
VIROQUA        CLOUDY    26  25  96 SE8       29.71F WCI  17
BOSCOBEL       CLOUDY    30  24  78 VRB3      29.76F
PRAIRIE DU CHI CLOUDY    31  23  73 E5        29.75S WCI  26
PLATTEVILLE    MOSUNNY   29  26  88 SE9       29.74F WCI  21
$$

WIZ056-057-062-063-064-067-068-111700-
SOUTH CENTRAL WISCONSIN

CITY           SKY/WX    TMP DP  RH WIND       PRES   REMARKS
REEDSBURG      CLOUDY    28  23  83 SE3       29.75F
BARABOO/DELLS  CLOUDY    28  23  81 S7        29.76F WCI  20
LONE ROCK      NOT AVBL
MINERAL POINT  CLOUDY    30  28  93 SE8       29.73F WCI  23
MADISON        PTSUNNY   27  23  85 S9        29.77F WCI  18
MIDDLETON      PTSUNNY   29  24  82 S9        29.77F WCI  21
WATERTOWN      CLOUDY    28  25  88 SE8       29.79F WCI  20
MONROE         PTSUNNY   30  25  80 S13       29.75F WCI  20
JANESVILLE     PTSUNNY   32  25  74 SE10      29.79F WCI  24
$$

WIZ051-052-058>065-066-070>072-111700-
SOUTHEAST WISCONSIN

CITY           SKY/WX    TMP DP  RH WIND       PRES   REMARKS
MILWAUKEE      CLOUDY    29  24  82 S10G17    29.83F WCI  20
WAUKESHA       CLOUDY    23  19  86 S6        29.82F WCI  16
MILWAUKEE/TIMM CLOUDY    27  19  74 S9        29.84F WCI  17
RACINE         CLOUDY    29  23  78 S8        29.85F WCI  21
BURLINGTON     MOSUNNY   36  34  92 S8        29.82F WCI  30
KENOSHA        CLOUDY    30  23  75 S9        29.83F WCI  22
FOND DU LAC    MIX PCPN  27  21  78 S10       29.80F WCI  17
SHEBOYGAN      CLOUDY    25  23  92 S8        29.83F WCI  16
WEST BEND      CLOUDY    27  23  86 S3        29.82F
JUNEAU         CLOUDY    25  21  86 SE9       29.82S WCI  15
$$

LSZ147-162-111700-
LAKE SUPERIOR

STATION/POSITION TIME  TEMP    WIND        PRES    WAVE
                       AIR SEA DIR/SP/G            HT/PER
                 (UTC) (F)     (DEG/KT/KT) (MB)    (FT/S)
DEVILS ISLAND    1500   23     190/  5/  6 1008.4S
SAXON HARBOR     1530   24                 1007.1S
$$

LMZ867-665-643>646-111700-
LAKE MICHIGAN

STATION/POSITION TIME  TEMP    WIND        PRES    WAVE
                       AIR SEA DIR/SP/G            HT/PER
                 (UTC) (F)     (DEG/KT/KT) (MB)    (FT/S)
NORTHPORT PIER   1540   23     210/  4/  7 1010.8F
KEWAUNEE LAKESHO 1530   24     210/  8/ 12 1010.5S
SHEBOYGAN LAKESH 1500   26     200/ 12/ 14 1012.1F
PORT WASHINGTON  1530   27     200/  6/ 11 1011.9F
MILWAUKEE LAKESH 1530   28     190/ 10/ 13   N/A
KENOSHA   LAKESH 1500   28     190/  7/ 13 1011.9
$$

TC  - TEMPERATURE IN CELSIUS
VSB - VISIBILITY IN STATUTE MILES
WCI - WIND CHILL INDEX
HX  - HEAT INDEX





USA.gov is the U.S. government's official web portal to all federal, state and local government web resources and services.